When you browse on this site, cookies collect data to enhance your experience and personalize the content and advertising you see.
Visit our Privacy Policy to learn more. By continuing to use the site, you agree to this use of cookies and data.

Meteo pe oră la Vatican

Astăzi, 28 Septembrie, Luni

Timp Temperatura Precipitaţii Vânt Presiune Umiditate
00:00 +15°C° 0.1 mm 7 m/s 752 mmHg 74%
01:00 +15°C° 0 mm 6 m/s 753 mmHg 69%
02:00 +14°C° 0.6 mm 5 m/s 753 mmHg 69%
03:00 +14°C° 0.6 mm 3 m/s 753 mmHg 69%
04:00 +15°C° 0.6 mm 2 m/s 753 mmHg 69%
05:00 +14°C° 1 mm 3 m/s 753 mmHg 72%
06:00 +14°C° 1 mm 3 m/s 754 mmHg 74%
07:00 +14°C° 0 mm 3 m/s 754 mmHg 79%
08:00 +15°C° 0.9 mm 4 m/s 754 mmHg 78%
09:00 +15°C° 0.9 mm 4 m/s 754 mmHg 76%
10:00 +16°C° 0.9 mm 5 m/s 755 mmHg 74%
11:00 +16°C° 1.1 mm 6 m/s 755 mmHg 71%
12:00 +17°C° 1.1 mm 6 m/s 755 mmHg 67%
13:00 +18°C° 1.1 mm 7 m/s 755 mmHg 64%
14:00 +20°C° 0.5 mm 6 m/s 755 mmHg 62%
15:00 +20°C° 0.5 mm 6 m/s 755 mmHg 60%
16:00 +20°C° 0.5 mm 5 m/s 755 mmHg 59%
17:00 +19°C° 0.1 mm 5 m/s 756 mmHg 60%
18:00 +19°C° 0.1 mm 4 m/s 756 mmHg 62%
19:00 +18°C° 0.1 mm 3 m/s 757 mmHg 64%
20:00 +18°C° 0 mm 3 m/s 757 mmHg 66%
21:00 +17°C° 0 mm 3 m/s 758 mmHg 69%
22:00 +17°C° 0 mm 3 m/s 758 mmHg 71%
23:00 +17°C° 0 mm 3 m/s 758 mmHg 72%

Mâine, 29 Septembrie, Marţi

Timp Temperatura Precipitaţii Vânt Presiune Umiditate
00:00 +17°C° 0 mm 3 m/s 758 mmHg 73%
01:00 +16°C° 0 mm 3 m/s 759 mmHg 73%
02:00 +16°C° 0 mm 3 m/s 759 mmHg 74%
03:00 +16°C° 0 mm 3 m/s 759 mmHg 74%
04:00 +14°C° 0 mm 3 m/s 759 mmHg 75%
05:00 +14°C° 0 mm 3 m/s 759 mmHg 74%
06:00 +14°C° 0 mm 3 m/s 760 mmHg 73%
07:00 +15°C° 0 mm 2 m/s 760 mmHg 73%
08:00 +17°C° 0 mm 2 m/s 760 mmHg 66%
09:00 +19°C° 0 mm 2 m/s 760 mmHg 60%
10:00 +21°C° 0 mm 1 m/s 761 mmHg 53%
11:00 +22°C° 0 mm 1 m/s 761 mmHg 49%
12:00 +23°C° 0 mm 1 m/s 761 mmHg 46%
13:00 +24°C° 0 mm 1 m/s 761 mmHg 42%
14:00 +24°C° 0 mm 1 m/s 761 mmHg 43%
15:00 +23°C° 0 mm 2 m/s 760 mmHg 45%
16:00 +23°C° 0 mm 2 m/s 760 mmHg 46%
17:00 +22°C° 0 mm 1 m/s 760 mmHg 49%
18:00 +21°C° 0 mm 1 m/s 760 mmHg 51%
19:00 +19°C° 0 mm 0 m/s 760 mmHg 54%
20:00 +20°C° 0 mm 1 m/s 761 mmHg 55%
21:00 +20°C° 0 mm 1 m/s 761 mmHg 56%
22:00 +20°C° 0 mm 1 m/s 761 mmHg 57%
23:00 +19°C° 0 mm 1 m/s 761 mmHg 58%

Poimâine, 30 Septembrie, Miercuri

Timp Temperatura Precipitaţii Vânt Presiune Umiditate
00:00 +18°C° 0 mm 2 m/s 760 mmHg 60%
01:00 +18°C° 0 mm 2 m/s 760 mmHg 61%
02:00 +18°C° 0 mm 2 m/s 760 mmHg 62%
03:00 +18°C° 0 mm 2 m/s 760 mmHg 62%
04:00 +18°C° 0 mm 3 m/s 759 mmHg 63%
05:00 +18°C° 0 mm 3 m/s 759 mmHg 63%
06:00 +18°C° 0 mm 3 m/s 759 mmHg 64%
07:00 +18°C° 0 mm 3 m/s 759 mmHg 64%
08:00 +19°C° 0 mm 3 m/s 759 mmHg 63%
09:00 +20°C° 0 mm 3 m/s 759 mmHg 62%
10:00 +21°C° 0 mm 3 m/s 759 mmHg 61%
11:00 +21°C° 0 mm 3 m/s 759 mmHg 61%
12:00 +22°C° 0 mm 3 m/s 758 mmHg 61%
13:00 +24°C° 0 mm 2 m/s 758 mmHg 61%
14:00 +23°C° 0 mm 2 m/s 758 mmHg 63%
15:00 +23°C° 0 mm 2 m/s 757 mmHg 65%
16:00 +23°C° 0 mm 2 m/s 757 mmHg 67%
17:00 +22°C° 0 mm 1 m/s 757 mmHg 70%
18:00 +22°C° 0 mm 1 m/s 757 mmHg 73%
19:00 +19°C° 0 mm 0 m/s 757 mmHg 76%
20:00 +21°C° 0 mm 1 m/s 757 mmHg 77%
21:00 +21°C° 0 mm 1 m/s 757 mmHg 78%
22:00 +19°C° 0 mm 2 m/s 757 mmHg 79%
23:00 +19°C° 0 mm 2 m/s 757 mmHg 79%

1 Octombrie, Joi

Timp Temperatura Precipitaţii Vânt Presiune Umiditate
00:00 +19°C° 0 mm 2 m/s 757 mmHg 79%
01:00 +18°C° 0 mm 2 m/s 756 mmHg 79%
02:00 +18°C° 0 mm 2 m/s 756 mmHg 79%
03:00 +18°C° 0 mm 2 m/s 756 mmHg 78%
04:00 +18°C° 0 mm 2 m/s 756 mmHg 78%
05:00 +18°C° 0 mm 2 m/s 755 mmHg 77%
06:00 +18°C° 0 mm 2 m/s 755 mmHg 77%
07:00 +19°C° 0 mm 1 m/s 755 mmHg 76%
08:00 +20°C° 0 mm 1 m/s 755 mmHg 70%
09:00 +21°C° 0 mm 1 m/s 755 mmHg 64%
10:00 +23°C° 0 mm 1 m/s 755 mmHg 59%
11:00 +23°C° 0 mm 1 m/s 755 mmHg 57%
12:00 +24°C° 0 mm 1 m/s 755 mmHg 56%
13:00 +24°C° 0 mm 2 m/s 755 mmHg 55%
14:00 +24°C° 0 mm 2 m/s 755 mmHg 57%
15:00 +24°C° 0 mm 2 m/s 754 mmHg 59%
16:00 +22°C° 0 mm 3 m/s 754 mmHg 62%
17:00 +22°C° 0 mm 3 m/s 754 mmHg 65%
18:00 +21°C° 0 mm 3 m/s 754 mmHg 69%
19:00 +20°C° 0 mm 2 m/s 755 mmHg 72%
20:00 +20°C° 0 mm 2 m/s 755 mmHg 73%
21:00 +20°C° 0 mm 2 m/s 755 mmHg 73%
22:00 +19°C° 0 mm 2 m/s 755 mmHg 73%
23:00 +19°C° 0 mm 2 m/s 755 mmHg 74%

2 Octombrie, Vineri

Timp Temperatura Precipitaţii Vânt Presiune Umiditate
00:00 +20°C° 0 mm 1 m/s 755 mmHg 75%
01:00 +20°C° 0 mm 1 m/s 755 mmHg 75%
02:00 +20°C° 0 mm 1 m/s 755 mmHg 77%
03:00 +19°C° 0 mm 2 m/s 754 mmHg 78%
04:00 +18°C° 0 mm 3 m/s 754 mmHg 79%
05:00 +19°C° 0 mm 4 m/s 754 mmHg 79%
06:00 +19°C° 0 mm 4 m/s 754 mmHg 79%
07:00 +19°C° 0 mm 5 m/s 754 mmHg 79%
08:00 +20°C° 0 mm 5 m/s 754 mmHg 75%
09:00 +21°C° 0 mm 6 m/s 754 mmHg 71%
10:00 +22°C° 0 mm 6 m/s 754 mmHg 67%
11:00 +23°C° 0 mm 7 m/s 754 mmHg 66%
12:00 +23°C° 0 mm 7 m/s 753 mmHg 65%
13:00 +24°C° 0 mm 8 m/s 753 mmHg 63%
14:00 +23°C° 0 mm 8 m/s 753 mmHg 64%
15:00 +23°C° 0 mm 8 m/s 753 mmHg 64%
16:00 +23°C° 0 mm 8 m/s 753 mmHg 64%
17:00 +23°C° 0 mm 9 m/s 753 mmHg 66%
18:00 +22°C° 0 mm 9 m/s 753 mmHg 67%
19:00 +21°C° 0 mm 9 m/s 753 mmHg 68%
20:00 +21°C° 0 mm 9 m/s 753 mmHg 68%
21:00 +21°C° 0 mm 9 m/s 753 mmHg 68%
22:00 +21°C° 0 mm 9 m/s 754 mmHg 67%
23:00 +21°C° 0 mm 9 m/s 753 mmHg 66%

3 Octombrie, Sâmbătă

Timp Temperatura Precipitaţii Vânt Presiune Umiditate
00:00 +21°C° 0 mm 9 m/s 753 mmHg 65%
01:00 +21°C° 0 mm 9 m/s 753 mmHg 63%
02:00 +21°C° 0 mm 10 m/s 753 mmHg 60%
03:00 +21°C° 0 mm 10 m/s 753 mmHg 57%
04:00 +21°C° 0 mm 10 m/s 752 mmHg 54%
05:00 +21°C° 0.1 mm 11 m/s 752 mmHg 53%
06:00 +22°C° 0.1 mm 11 m/s 752 mmHg 52%
07:00 +22°C° 0.1 mm 12 m/s 752 mmHg 51%
08:00 +23°C° 0.2 mm 12 m/s 752 mmHg 52%
09:00 +24°C° 0.2 mm 12 m/s 752 mmHg 53%
10:00 +26°C° 0.2 mm 12 m/s 752 mmHg 54%
11:00 +27°C° 0 mm 12 m/s 752 mmHg 54%
12:00 +27°C° 0 mm 13 m/s 752 mmHg 54%
13:00 +28°C° 0 mm 13 m/s 751 mmHg 54%
14:00 +28°C° 0 mm 12 m/s 751 mmHg 56%
15:00 +28°C° 0 mm 11 m/s 751 mmHg 57%
16:00 +27°C° 0 mm 10 m/s 751 mmHg 58%
17:00 +27°C° 0 mm 10 m/s 751 mmHg 62%
18:00 +26°C° 0 mm 9 m/s 751 mmHg 67%
19:00 +26°C° 0 mm 8 m/s 751 mmHg 71%
20:00 +26°C° 0.2 mm 8 m/s 752 mmHg 73%
21:00 +26°C° 0.2 mm 8 m/s 752 mmHg 74%
22:00 +24°C° 0.2 mm 7 m/s 753 mmHg 75%
23:00 +24°C° 0.3 mm 7 m/s 753 mmHg 77%
Arată mai mult